Location: Newark
(41.6500°N, 71.4833°W)
Time: 17:17:20
(UTC+00:00)

Courier 1B - Visible Passes

Search period start: 27 January 2021 00:00
Search period end: 06 February 2021 00:00
Orbit: 962 x 1209 km, 28.3° (Epoch: 27 January)

Date Brightness Start Highest point End Pass type
(mag) Time Alt. Az. Time Alt. Az. Time Alt. Az.
30 Jan 9.7 00:52:00 10° SSW 00:53:34 13° S 00:53:34 13° S visible
30 Jan 9.6 23:59:25 10° S 00:02:27 13° SSE 00:03:19 13° SSE visible
31 Jan 10.1 01:50:05 10° SW 01:50:13 10° SW 01:50:13 10° SW visible
01 Feb 9.4 00:56:39 10° SSW 00:59:57 19° S 00:59:57 19° S visible
02 Feb 9.3 00:03:23 10° SSW 00:08:21 19° SSE 00:09:39 18° SSE visible
02 Feb 10.0 01:55:41 10° SW 01:56:33 13° SW 01:56:33 13° SW visible
02 Feb 9.6 23:10:22 10° SSW 23:14:44 16° SSE 23:19:00 10° ESE visible
03 Feb 9.2 01:02:01 10° SW 01:06:15 24° SSW 01:06:15 24° SSW visible
04 Feb 9.0 00:08:26 10° SW 00:14:19 25° S 00:15:55 23° SSE visible
04 Feb 10.0 02:01:35 10° WSW 02:02:49 14° SW 02:02:49 14° SW visible
04 Feb 9.4 23:15:00 10° SSW 23:20:38 22° SSE 23:25:35 12° ESE visible
05 Feb 9.1 01:07:45 10° SW 01:12:29 26° SSW 01:12:29 26° SSW visible
